Skagway, AK

3:14 PM AKDT on September 25, 2016 (GMT -0800)
Skagway

Weather History for PAGY - November, 2014

Change the Weather History Date:

Thursday, November 20, 2014

  Actual Average Record
Temperature  
Mean Temperature 35 °F -  
Max Temperature 42 °F 36 °F 48 °F (2005)
Min Temperature 28 °F 28 °F 5 °F (1970)
Degree Days  
Heating Degree Days 30    
Moisture  
Dew Point 29 °F    
Average Humidity 78    
Maximum Humidity 96    
Minimum Humidity 55    
Precipitation  
Precipitation 0.00 in - - ()
Sea Level Pressure  
Sea Level Pressure 29.59 in    
Wind  
Wind Speed 4 mph (NE)    
Max Wind Speed 15 mph    
Max Gust Speed 20 mph    
Visibility 10 miles    
Events      
Averages and records for this station are not official NWS values.
T = Trace of Precipitation, MM = Missing Value Source: NWS Daily Summary

Daily Weather History Graph

Daily Weather History Graph

Search for Another Location

Airport or City:

Trip Planner

Search our weather history database for the weather conditions in past years. The results will help you decide how hot, cold, wet, or windy it might be!

Date:

Astronomy

Nov. 20, 2014 Rise Set
Actual Time 8:08 AM AKST 3:24 PM AKST
Civil Twilight 7:18 AM AKST 4:14 PM AKST
Nautical Twilight 6:27 AM AKST 5:06 PM AKST
Astronomical Twilight 5:38 AM AKST 5:54 PM AKST
Moon 5:39 AM AKST (11/20) 3:00 PM AKST (11/20)
Length of Visible Light 8h 55m
Length of Day
7h 16m
Waning Crescent, 3% of the Moon is Illuminated
Nov 20
Waning Crescent
Nov 22
New
Nov 29
First Quarter
Dec 6
Full
Dec 14
Last Quarter

Hourly Weather History & Observations

Time (AKST) Temp. Windchill Dew Point Humidity Pressure Visibility Wind Dir Wind Speed Gust Speed Precip Events Conditions
12:53 AM 30.9 °F 27.5 °F 30.0 °F 96% 29.75 in 9.0 mi NE 3.5 mph - N/A   Clear
1:53 AM 30.0 °F 26.5 °F 28.0 °F 92% 29.75 in 9.0 mi NE 3.5 mph - N/A   Clear
2:53 AM 30.0 °F - 28.9 °F 96% 29.73 in 10.0 mi Calm Calm - N/A   Clear
3:53 AM 30.0 °F 26.5 °F 28.0 °F 92% 29.72 in 10.0 mi ENE 3.5 mph - N/A   Clear
4:53 AM 30.0 °F - 28.0 °F 92% 29.71 in 10.0 mi Calm Calm - N/A   Clear
5:53 AM 30.0 °F 25.2 °F 28.0 °F 92% 29.70 in 10.0 mi NE 4.6 mph - N/A   Clear
6:53 AM 30.0 °F 26.5 °F 28.0 °F 92% 29.68 in 10.0 mi NE 3.5 mph - N/A   Clear
7:53 AM 28.9 °F 25.2 °F 27.0 °F 92% 29.66 in 10.0 mi NE 3.5 mph - N/A   Clear
8:53 AM 30.9 °F 27.5 °F 28.0 °F 89% 29.65 in 10.0 mi NE 3.5 mph - N/A   Clear
9:53 AM 30.9 °F - 28.9 °F 92% 29.63 in 8.0 mi Calm Calm - N/A   Clear
10:53 AM 32.0 °F 27.5 °F 30.0 °F 92% 29.63 in 10.0 mi North 4.6 mph - N/A   Clear
11:53 AM 37.9 °F - 34.0 °F 86% 29.61 in 10.0 mi Calm Calm - N/A   Clear
12:53 PM 39.0 °F 34.8 °F 35.1 °F 86% 29.61 in 10.0 mi South 5.8 mph - N/A   Clear
1:53 PM 41.0 °F 38.0 °F 30.9 °F 67% 29.58 in 10.0 mi Variable 4.6 mph - N/A   Clear
2:53 PM 39.9 °F 35.1 °F 30.0 °F 68% 29.56 in 10.0 mi Variable 6.9 mph - N/A   Clear
3:53 PM 39.9 °F 35.8 °F 28.9 °F 65% 29.55 in 10.0 mi Variable 5.8 mph - N/A   Clear
4:53 PM 39.9 °F 35.1 °F 28.9 °F 65% 29.54 in 10.0 mi NNW 6.9 mph - N/A   Clear
5:53 PM 39.9 °F 35.1 °F 28.0 °F 63% 29.51 in 10.0 mi Variable 6.9 mph - N/A   Partly Cloudy
6:53 PM 39.9 °F 37.8 °F 27.0 °F 60% 29.49 in 10.0 mi Variable 3.5 mph - N/A   Clear
7:53 PM 41.0 °F 35.8 °F 27.0 °F 57% 29.47 in 10.0 mi NNW 8.1 mph - N/A   Clear
8:53 PM 39.0 °F - 27.0 °F 62% 29.46 in 10.0 mi Calm Calm - N/A   Clear
9:53 PM 39.9 °F 36.7 °F 28.0 °F 63% 29.43 in 10.0 mi Variable 4.6 mph - N/A   Clear
10:53 PM 42.1 °F 37.7 °F 27.0 °F 55% 29.41 in 10.0 mi Variable 6.9 mph - N/A   Mostly Cloudy
11:53 PM 42.1 °F 34.5 °F 27.0 °F 55% 29.39 in 10.0 mi NNE 15.0 mph 19.6 mph N/A   Overcast